7 * 24
多渠道服务支持
ASTRA 3B是由SES公司运营的通信卫星,于2010年5月21日发射升空。该卫星定点于地球静止轨道23.5°E位置,主要为欧洲地区提供有线电视广播、宽带互联网接入和多媒体通信服务。它配备了高性能Ku波段和Ka波段转发器,信号覆盖中欧、东欧和北欧地区,支持高清和超高清电视信号传输,同时满足企业数据通信和个人宽带接入需求,目前已成为欧洲重要的广播电视基础设施之一。
(SES)
| 数据来源 | 国际轨道数据 |
| 星历时间: | 2026-09-12T04:54:36+0800 9小时前 查看轨道信息 |
| 半长轴: | 42164.924km |
| 偏心率: | 0.0003762 |
| 轨道倾角: | 1.686° |
| 近地点辐角 | 63.884° |
| 升交点赤经 | 82.361° |
| 平近点角 | 181.792° |
| 近地点: | 35770.924km |
| 远地点: | 35802.65km |
| 周期: | 1436.107分钟 |
| 每日圈数: | 1.002711 |